STARLINK-1158 (45056 NORAD) Tracking and Keplerian Element Data

This shows tracking and keplerian element data for the satellite.

Feedback or suggestion? Click here.




ElementValue
Catalog45056
NameSTARLINK-1158
Epoch Orbit161
Epoch Day93.91667824
Epoch Year2020
RAAN293.6876
Inclination52.9936
Eccentricity0.000164
Argument of Perigee83.4239
Mean Anonmoly346.7951
Mean Motion15.05571489
Decay Rate0.00012925
L11 45056U 20006N 20093.91667824 .00012925 00000-0 90483-3 0 9991
L22 45056 52.9936 293.6876 0001640 83.4239 346.7951 15.05571489 1615

Live tracking and technical data element details for STARLINK-1158 (NORAD 45056). STARLINK-1158 can be tracked NOW for your location showing map with azimuth and elevation plus other details from your city location.

Track the satellite on the map from your city or location and see movement details for azimuth, elevation, latitude, longitude, range, height, and movement on the map or in text.







IsCatalogInMostPopularTable: catalog: 45056, numindb: 13
Update: records affected: 1



GetName: 45056 STARLINK-1158

Hit Count: updated at: Sun, 05 Apr 2020 19:25:57 GMT